Regional Weather Roundup
Issued by NWS

Home | Current Version | Previous Version | Graphics & Text | Print | Product List | Glossary On
Versions: 1 2 3 4 5 6 7 8 9 10 11 12 13 14 15 16 17 18 19 20 21 22 23 24 25 26 27 28 29 30 31 32 33 34 35 36 37 38 39 40 41 42 43 44 45 46 47 48 49 50
223
ASUS43 KDMX 220201
RWRIA

WEATHER ROUNDUP FOR IOWA
NATIONAL WEATHER SERVICE DES MOINES IA
800 PM CST SAT JAN 21 2017

NOTE: "FAIR" INDICATES FEW OR NO CLOUDS BELOW 12,000 FEET WITH NO
SIGNIFICANT WEATHER AND/OR OBSTRUCTIONS TO VISIBILITY.

* - THESE STATIONS ARE NOT NWS STATIONS...THUS NOT UNDER NWS
QUALITY CONTROL.  THEY ALSO DO NOT REPORT WEATHER SUCH
AS PRECIPITATION OR FOG.

IAZ001>003-012>014-020>022-031>034-043>046-220300-
   NORTHWEST IOWA

CITY           SKY/WX    TMP DP  RH WIND       PRES   REMARKS
DENISON *      CLEAR     34  34 100 E5        29.50R WCI  30
LE MARS *      CLEAR     30  30 100 NW5       29.54S WCI  25
SHELDON *      CLOUDY    32  32 100 W8        29.50S WCI  25
SIOUX CITY     CLEAR     31  29  92 N6        29.54R WCI  25
SPENCER          N/A    N/A N/A N/A MISG      29.51R
STORM LAKE *   CLEAR     32  30  93 NW8       29.52R WCI  25
$$

IAZ055>058-069>071-079>083-090>094-220300-
   SOUTHWEST IOWA

CITY           SKY/WX    TMP DP  RH WIND       PRES   REMARKS
ATLANTIC *     FOG       32  32 100 CALM      29.53S VSB<1/4
AUDUBON *      FOG       32  30  93 CALM      29.54R VSB 1/4
CLARINDA *     CLEAR     32  32 100 CALM      29.55S
COUNCIL BLFS * CLEAR     41  39  93 SW5       29.53R
CRESTON *      CLEAR     37  37 100 S5        29.55R WCI  34
HARLAN  *      FOG       32  32 100 CALM      29.56R VSB<1/4
LAMONI         CLEAR     42  39  89 S7        29.54R
SHENANDOAH *   CLEAR     34  34 100 CALM      29.54S
$$

IAZ047>049-059>061-072>074-084-220300-
   CENTRAL IOWA

CITY           SKY/WX    TMP DP  RH WIND       PRES   REMARKS
AMES           PTCLDY    32  32 100 S8        29.54R WCI  25
ANKENY *       CLOUDY    34  32  93 CALM      29.56R FOG
BOONE *        CLEAR     37  37 100 S7        29.53R WCI  32
CHARITON *     CLEAR     37  37 100 SW3       29.54S FOG
DES MOINES     CLEAR     37  35  92 CALM      29.54S FOG
GRINNELL*      PTCLDY    37  36  95 SW7       29.55R FOG     WCI  31
KNOXVILLE *    CLEAR     39  39 100 SW5       29.54R
MARSHALLTOWN   CLOUDY    38  37  97 SW8       29.54R WCI  32
NEWTON *       CLEAR     37  37 100 W3        29.54S FOG
PERRY *          N/A     34  34  99 S7        29.54R FOG     WCI  28
$$

IAZ004>006-015-016-023>025-035-036-220300-
   NORTH CENTRAL IOWA

CITY           SKY/WX    TMP DP  RH WIND       PRES   REMARKS
CLARION *      CLOUDY    34  34 100 CALM      29.52R FOG
ESTHERVILLE    CLOUDY    31  31 100 W10       29.50R WCI  22
FORT DODGE *   CLOUDY    34  32  93 W3        29.53R
MASON CITY     CLOUDY    36  35  96 W9        29.52R WCI  29
WEBSTER CITY * PTCLDY    34 N/A N/A S7        29.50R WCI  28
IOWA FALLS *     N/A     36  36  98 CALM      29.53S FOG
$$

IAZ007>011-017>019-026>030-037>042-050>054-066-220300-
   NORTHEAST IOWA

CITY           SKY/WX    TMP DP  RH WIND       PRES   REMARKS
CEDAR RAPIDS   CLOUDY    40  38  93 SW5       29.55R
CHARLES CITY * CLOUDY    37  37 100 SW7       29.52R FOG     WCI  32
CLINTON *      CLOUDY    41  40  96 CALM      29.58R FOG
DUBUQUE        CLOUDY    40  39  97 SW7       29.54R FOG
MONTICELLO *   CLOUDY    41  39  93 SW5       29.55R FOG
WATERLOO       CLOUDY    40  37  89 W8        29.53R WCI  34
$$

IAZ064-065-067-068-078-220300-
   EAST CENTRAL IOWA

CITY           SKY/WX    TMP DP  RH WIND       PRES   REMARKS
DAVENPORT      CLOUDY    42  40  92 SW8       29.57S
IOWA CITY      CLOUDY    43  38  82 W3        29.58R
MUSCATINE *    CLOUDY    43  39  87 SW5       29.58S
QUAD CITIES    CLOUDY    43  40  89 W3        29.57R
$$

IAZ062-063-075>077-085>089-095>099-220300-
   SOUTHEAST IOWA

CITY           SKY/WX    TMP DP  RH WIND       PRES   REMARKS
BURLINGTON     CLOUDY    41  40  96 NW3       29.57R
FORT MADISON * CLOUDY    39  37  93 W3        29.59R FOG
KEOKUK *       PTCLDY    43 N/A N/A CALM      29.57R
OTTUMWA        CLEAR     35  32  88 CALM      29.54S FOG
$$

ABBREVIATIONS USED IN REMARKS
   TC - TEMPERATURES IN CELSIUS
  WCI - WIND CHILL INDEX
   HX - HEAT INDEX
  VSB - VISIBILITY
$$





USA.gov is the U.S. government's official web portal to all federal, state and local government web resources and services.